CZ-6A DEB, 56650

Orbit data source: Space-Track

CZ-6A DEB, 56650 is space debris in SSO originally from a launch on Fri, 11 Nov 2022 UTC launched from the Taiyaun Space Center, China (TSC). Debris objects in space refer to the collection of defunct objects orbiting the Earth. Examples of debris include non-operational satellites, rocket bodies, and fragments generated from explosions, collisions, or faulty payload assembly.

Loading next visibility...
Identifier
56650, 2022-151AGA
Orbit
SSO
Country
Flag of CNCN / PRC
Related business
Manufacturer
SAST
Mission
Spacecraft
Bus & Motor
Unknown
Mass
Unknown
Launch date (UTC)
2022-11-11 (4 years ago)
Launch vehicle
Unknown
Launch site
Taiyaun Space Center, China (TSC)
Object type
Payload
Rocket body
Debris
Shape & HBR
Unknown shape, 0.1 m
Radar Cross Section
Small (<0.1 m²)

Expand to show TLE details & history
Last TLE update: 2 days ago

TLE from 2 days ago
0 CZ-6A DEB
1 56650U 22151AGA 26170.96621482  .00001586  00000-0  80978-3 0  9992
2 56650  98.8323 176.1213 0043349 316.0761  43.6970 14.16611552171252
Epoch: 2026-06-19T23:11Z
TLE epoch observation values (Epoch: 2026-06-19T23:11:20.960Z)
Latitude
-0.00004°
Longitude
-79.90364°
Altitude
817.189 km
Speed
7.456 km/s
True Right ascension
11h 44m 29s
True Declination
0° 00' 00"
Sunlit
Object was in daylight at epoch
Visualization orbit readout
Latitude
Unknown
Longitude
Unknown
Altitude
Unknown
Speed
Unknown
Apparent Right ascension
Unknown
Apparent Declination
Unknown
Sunlit
N/A
Visualization observer readout
Local Sidereal Time
21:54:16
Azimuth
Unknown
Elevation
Unknown
Doppler factor
Unknown
Orbital elements
Apogee altitude
865.268 km
Perigee altitude
802.74 km
Semi-major axis
7,212.141 km
Eccentricity
0.00433
Inclination
98.8323°
RAAN
176.1213°
Arg. of periapsis
316.0761°
True anomaly
44.04152°
Mean anomaly
43.697°
Eccentric anomaly
43.86912°
Mean motion
3.54362 °/min
Orbital period
101.59 mins
BSTAR
0.00080978
Loading maneuver chart data...
Computing Atmospheric mass density...
Loading historical data...
Loading historical data...
Loading historical data...
Loading historical data...
Loading historical data...
Loading historical data...
Loading historical data...

Documentation

Showing up to 5 results
|